C/2018 L2 ( ATLAS )

Japanese version
Home page
Updated on September 23, 2018

---------------------------------------------------------------------

* Profile

Discovery Date June 6, 2018
Magnitude 15.6 mag
Discoverer Asteroid Terrestrial-impact Last Alert System (ATLAS) search program

* Pictures

* Orbital Elements

Epoch 2018 Nov. 18.0 TT = JDT 2458440.5
T 2018 Dec. 2.57668 TT                                  MPCW
q   1.7117310            (2000.0)            P               Q
z  +0.0040966      Peri.   56.22724     +0.03218152     +0.56732906
 +/-0.0000078      Node   243.01855     -0.89266947     +0.38662549
e   0.9929877      Incl.   67.42345     +0.44956152     +0.72708904
From 269 observations 2018 June 4-Sept. 19, mean residual 0".6.

* Finding Charts

* Magnitudes Graph

        m1 = 9.0 + 5 log d + 10.0 log r

---------------------------------------------------------------------

The orbital elements are published on M.P.E.C. 2018-S50.
The charts are made with StellaNavigator Ver.10 (AstroArts).
The magnitudes graphs are made with Comet for Windows.

---------------------------------------------------------------------

Copyright(C) Seiichi Yoshida (comet@aerith.net). All rights reserved.